Time,TemperatureF,DewpointF,PressureIn,WindDirection,WindDirectionDegrees,WindSpeedMPH,WindSpeedGustMPH,Humidity,HourlyPrecipIn,Conditions,Clouds,dailyrainin,SoftwareType,DateUTC
2013-02-27 00:01:00,14.0,10.0,-100.00,West,264,9.0,12.0,85,0.00,,,-99.99,,2013-02-27 07:01:00,
2013-02-27 00:12:00,14.0,10.0,-100.00,West,265,9.0,12.0,84,0.00,,,-99.99,,2013-02-27 07:12:00,
2013-02-27 00:21:00,14.0,10.0,-100.00,West,264,9.0,12.0,82,0.00,,,-99.99,,2013-02-27 07:21:00,
2013-02-27 00:32:00,15.0,10.0,-100.00,West,264,10.0,16.0,81,0.00,,,-99.99,,2013-02-27 07:32:00,
2013-02-27 00:41:00,15.0,10.0,-100.00,WSW,258,10.0,13.0,81,0.00,,,-99.99,,2013-02-27 07:41:00,
2013-02-27 00:51:00,14.0,9.0,-100.00,West,267,10.0,14.0,81,0.00,,,-99.99,,2013-02-27 07:51:00,
2013-02-27 01:01:00,14.0,9.0,-100.00,West,261,11.0,14.0,80,0.00,,,-99.99,,2013-02-27 08:01:00,
2013-02-27 01:11:00,14.0,9.0,-100.00,West,261,12.0,15.0,80,0.00,,,-99.99,,2013-02-27 08:11:00,
2013-02-27 01:21:00,14.0,9.0,-100.00,West,261,11.0,14.0,81,0.00,,,-99.99,,2013-02-27 08:21:00,
2013-02-27 01:32:00,14.0,9.0,-100.00,West,265,10.0,13.0,80,0.00,,,-99.99,,2013-02-27 08:32:00,
2013-02-27 01:41:00,15.0,9.0,-100.00,West,267,10.0,13.0,79,0.00,,,-99.99,,2013-02-27 08:41:00,
2013-02-27 01:52:00,14.0,9.0,-100.00,West,268,10.0,13.0,81,0.00,,,-99.99,,2013-02-27 08:52:00,
2013-02-27 02:02:00,14.0,9.0,-100.00,West,263,10.0,14.0,80,0.00,,,-99.99,,2013-02-27 09:02:00,
2013-02-27 02:11:00,14.0,9.0,-100.00,West,261,10.0,14.0,80,0.00,,,-99.99,,2013-02-27 09:11:00,
2013-02-27 02:21:00,14.0,9.0,-100.00,West,263,10.0,15.0,79,0.00,,,-99.99,,2013-02-27 09:21:00,
2013-02-27 02:32:00,13.0,7.0,-100.00,WSW,258,11.0,15.0,79,0.00,,,-99.99,,2013-02-27 09:32:00,
2013-02-27 02:41:00,12.0,6.0,-100.00,WSW,258,10.0,15.0,79,0.00,,,-99.99,,2013-02-27 09:41:00,
2013-02-27 02:51:00,11.0,6.0,-100.00,WSW,247,9.0,12.0,81,0.00,,,-99.99,,2013-02-27 09:51:00,
2013-02-27 03:01:00,11.0,6.0,-100.00,WSW,247,10.0,12.0,81,0.00,,,-99.99,,2013-02-27 10:01:00,
2013-02-27 03:12:00,11.0,6.0,-100.00,WSW,248,10.0,12.0,80,0.00,,,-99.99,,2013-02-27 10:12:00,
2013-02-27 03:21:00,12.0,7.0,-100.00,WSW,250,11.0,14.0,80,0.00,,,-99.99,,2013-02-27 10:21:00,
2013-02-27 03:32:00,12.0,7.0,-100.00,WSW,250,12.0,15.0,80,0.00,,,-99.99,,2013-02-27 10:32:00,
2013-02-27 03:42:00,12.0,7.0,-100.00,WSW,250,12.0,15.0,80,0.00,,,-99.99,,2013-02-27 10:42:00,
2013-02-27 03:52:00,12.0,6.0,-100.00,WSW,251,12.0,15.0,77,0.00,,,-99.99,,2013-02-27 10:52:00,
2013-02-27 04:02:00,13.0,6.0,-100.00,WSW,253,12.0,17.0,75,0.00,,,-99.99,,2013-02-27 11:02:00,
2013-02-27 04:12:00,13.0,6.0,-100.00,WSW,254,14.0,17.0,76,0.00,,,-99.99,,2013-02-27 11:12:00,
2013-02-27 04:22:00,12.0,7.0,-100.00,WSW,248,15.0,20.0,79,0.00,,,-99.99,,2013-02-27 11:22:00,
2013-02-27 04:32:00,12.0,7.0,-100.00,WSW,250,15.0,20.0,80,0.00,,,-99.99,,2013-02-27 11:32:00,
2013-02-27 04:41:00,12.0,7.0,-100.00,WSW,250,15.0,19.0,80,0.00,,,-99.99,,2013-02-27 11:41:00,
2013-02-27 04:52:00,12.0,7.0,-100.00,WSW,251,16.0,20.0,79,0.00,,,-99.99,,2013-02-27 11:52:00,
2013-02-27 05:02:00,12.0,7.0,-100.00,WSW,251,16.0,21.0,79,0.00,,,-99.99,,2013-02-27 12:02:00,
2013-02-27 05:12:00,12.0,7.0,-100.00,WSW,250,16.0,20.0,79,0.00,,,-99.99,,2013-02-27 12:12:00,
2013-02-27 05:22:00,11.0,6.0,-100.00,WSW,253,16.0,21.0,80,0.00,,,-99.99,,2013-02-27 12:22:00,
2013-02-27 05:32:00,11.0,6.0,-100.00,WSW,251,16.0,21.0,80,0.00,,,-99.99,,2013-02-27 12:32:00,
2013-02-27 05:42:00,11.0,6.0,-100.00,WSW,251,16.0,21.0,79,0.00,,,-99.99,,2013-02-27 12:42:00,
2013-02-27 05:52:00,11.0,6.0,-100.00,WSW,251,16.0,20.0,79,0.00,,,-99.99,,2013-02-27 12:52:00,
2013-02-27 06:02:00,11.0,6.0,-100.00,WSW,247,17.0,22.0,78,0.00,,,-99.99,,2013-02-27 13:02:00,
2013-02-27 06:11:00,12.0,6.0,-100.00,WSW,247,19.0,24.0,77,0.00,,,-99.99,,2013-02-27 13:11:00,
2013-02-27 06:22:00,11.0,6.0,-100.00,WSW,250,17.0,22.0,78,0.00,,,-99.99,,2013-02-27 13:22:00,
2013-02-27 06:32:00,11.0,6.0,-100.00,WSW,247,17.0,21.0,78,0.00,,,-99.99,,2013-02-27 13:32:00,
2013-02-27 06:42:00,12.0,6.0,-100.00,WSW,244,19.0,24.0,78,0.00,,,-99.99,,2013-02-27 13:42:00,
2013-02-27 06:52:00,11.0,6.0,-100.00,WSW,247,17.0,22.0,79,0.00,,,-99.99,,2013-02-27 13:52:00,
2013-02-27 07:02:00,11.0,6.0,-100.00,WSW,246,18.0,22.0,79,0.00,,,-99.99,,2013-02-27 14:02:00,
2013-02-27 07:12:00,11.0,6.0,-100.00,WSW,246,17.0,21.0,79,0.00,,,-99.99,,2013-02-27 14:12:00,
2013-02-27 07:21:00,12.0,6.0,-100.00,WSW,247,19.0,27.0,77,0.00,,,-99.99,,2013-02-27 14:21:00,
2013-02-27 07:32:00,12.0,6.0,-100.00,WSW,248,19.0,24.0,77,0.00,,,-99.99,,2013-02-27 14:32:00,
2013-02-27 07:42:00,12.0,6.0,-100.00,WSW,251,20.0,27.0,76,0.00,,,-99.99,,2013-02-27 14:42:00,
2013-02-27 07:52:00,13.0,6.0,-100.00,WSW,253,20.0,26.0,76,0.00,,,-99.99,,2013-02-27 14:52:00,
2013-02-27 08:02:00,13.0,6.0,-100.00,WSW,251,19.0,25.0,76,0.00,,,-99.99,,2013-02-27 15:02:00,
2013-02-27 08:22:00,13.0,6.0,-100.00,WSW,250,19.0,24.0,74,0.01,,,-99.99,,2013-02-27 15:22:00,
2013-02-27 08:32:00,13.0,6.0,-100.00,WSW,248,18.0,22.0,72,0.00,,,-99.99,,2013-02-27 15:32:00,
2013-02-27 08:42:00,13.0,6.0,-100.00,WSW,248,17.0,22.0,73,0.00,,,-99.99,,2013-02-27 15:42:00,
2013-02-27 08:52:00,14.0,6.0,-100.00,WSW,258,14.0,19.0,71,0.00,,,-99.99,,2013-02-27 15:52:00,
2013-02-27 09:02:00,15.0,7.0,-100.00,WSW,253,14.0,19.0,70,0.00,,,-99.99,,2013-02-27 16:02:00,
2013-02-27 09:11:00,15.0,7.0,-100.00,WSW,253,15.0,21.0,70,0.00,,,-99.99,,2013-02-27 16:11:00,
2013-02-27 09:22:00,15.0,7.0,-100.00,WSW,253,15.0,21.0,71,0.00,,,-99.99,,2013-02-27 16:22:00,
2013-02-27 09:32:00,16.0,7.0,-100.00,WSW,257,14.0,20.0,67,0.00,,,-99.99,,2013-02-27 16:32:00,
2013-02-27 09:42:00,16.0,7.0,-100.00,West,260,14.0,19.0,69,0.00,,,-99.99,,2013-02-27 16:42:00,
2013-02-27 09:52:00,16.0,7.0,-100.00,West,264,17.0,24.0,66,0.00,,,-99.99,,2013-02-27 16:52:00,
2013-02-27 10:02:00,17.0,7.0,-100.00,West,263,17.0,24.0,65,0.00,,,-99.99,,2013-02-27 17:02:00,
2013-02-27 10:11:00,17.0,7.0,-100.00,West,264,16.0,24.0,64,0.00,,,-99.99,,2013-02-27 17:11:00,
2013-02-27 10:21:00,17.0,6.0,-100.00,West,268,19.0,24.0,61,0.00,,,-99.99,,2013-02-27 17:21:00,
2013-02-27 10:32:00,17.0,6.0,-100.00,West,268,17.0,24.0,62,0.00,,,-99.99,,2013-02-27 17:32:00,
2013-02-27 10:42:00,17.0,7.0,-100.00,West,268,17.0,24.0,64,0.00,,,-99.99,,2013-02-27 17:42:00,
2013-02-27 10:52:00,17.0,7.0,-100.00,West,271,17.0,26.0,65,0.00,,,-99.99,,2013-02-27 17:52:00,
2013-02-27 11:01:00,17.0,7.0,-100.00,West,278,17.0,26.0,65,0.00,,,-99.99,,2013-02-27 18:01:00,
2013-02-27 11:11:00,17.0,7.0,-100.00,West,281,16.0,22.0,65,0.00,,,-99.99,,2013-02-27 18:11:00,
2013-02-27 11:22:00,17.0,7.0,-100.00,West,278,15.0,28.0,63,0.00,,,-99.99,,2013-02-27 18:22:00,
2013-02-27 11:32:00,18.0,7.0,-100.00,West,274,19.0,29.0,61,0.00,,,-99.99,,2013-02-27 18:32:00,
2013-02-27 11:42:00,18.0,6.0,-100.00,West,272,21.0,28.0,60,0.00,,,-99.99,,2013-02-27 18:42:00,
2013-02-27 11:51:00,18.0,7.0,-100.00,West,268,19.0,27.0,61,0.00,,,-99.99,,2013-02-27 18:51:00,
2013-02-27 12:01:00,18.0,6.0,-100.00,West,270,21.0,32.0,59,0.00,,,-99.99,,2013-02-27 19:01:00,
2013-02-27 12:11:00,18.0,7.0,-100.00,West,275,21.0,32.0,61,0.00,,,-99.99,,2013-02-27 19:11:00,
2013-02-27 12:21:00,18.0,6.0,-100.00,West,281,22.0,32.0,59,0.00,,,-99.99,,2013-02-27 19:21:00,
2013-02-27 12:32:00,18.0,5.0,-100.00,West,271,20.0,31.0,56,0.00,,,-99.99,,2013-02-27 19:32:00,
2013-02-27 12:42:00,18.0,7.0,-100.00,WSW,258,26.0,35.0,63,0.00,,,-99.99,,2013-02-27 19:42:00,
2013-02-27 12:52:00,18.0,8.0,-100.00,West,260,23.0,32.0,63,0.00,,,-99.99,,2013-02-27 19:52:00,
2013-02-27 13:01:00,18.0,6.0,-100.00,West,264,24.0,35.0,58,0.00,,,-99.99,,2013-02-27 20:01:00,
2013-02-27 13:11:00,18.0,5.0,-100.00,West,261,26.0,35.0,58,0.00,,,-99.99,,2013-02-27 20:11:00,
2013-02-27 13:21:00,18.0,7.0,-100.00,West,267,24.0,34.0,62,0.00,,,-99.99,,2013-02-27 20:21:00,
2013-02-27 13:32:00,18.0,6.0,-100.00,West,265,24.0,35.0,59,0.00,,,-99.99,,2013-02-27 20:32:00,
2013-02-27 13:42:00,18.0,6.0,-100.00,West,260,24.0,35.0,60,0.00,,,-99.99,,2013-02-27 20:42:00,
2013-02-27 13:52:00,18.0,7.0,-100.00,West,261,22.0,34.0,60,0.00,,,-99.99,,2013-02-27 20:52:00,
2013-02-27 14:02:00,18.0,4.0,-100.00,West,270,21.0,32.0,55,0.00,,,-99.99,,2013-02-27 21:02:00,
2013-02-27 14:11:00,18.0,5.0,-100.00,West,278,23.0,37.0,55,0.00,,,-99.99,,2013-02-27 21:11:00,
2013-02-27 14:21:00,18.0,5.0,-100.00,WNW,285,21.0,29.0,56,0.00,,,-99.99,,2013-02-27 21:21:00,
2013-02-27 14:32:00,18.0,4.0,-100.00,West,278,22.0,31.0,54,0.00,,,-99.99,,2013-02-27 21:32:00,
2013-02-27 14:42:00,18.0,4.0,-100.00,West,277,24.0,35.0,54,0.00,,,-99.99,,2013-02-27 21:42:00,
2013-02-27 14:51:00,18.0,3.0,-100.00,West,278,26.0,35.0,51,0.00,,,-99.99,,2013-02-27 21:51:00,
2013-02-27 15:01:00,18.0,2.0,-100.00,West,274,24.0,34.0,49,0.00,,,-99.99,,2013-02-27 22:01:00,
2013-02-27 15:11:00,18.0,3.0,-100.00,West,275,24.0,35.0,51,0.00,,,-99.99,,2013-02-27 22:11:00,
2013-02-27 15:21:00,18.0,2.0,-100.00,West,275,24.0,35.0,50,0.00,,,-99.99,,2013-02-27 22:21:00,
2013-02-27 15:31:00,18.0,1.0,-100.00,West,274,25.0,40.0,48,0.00,,,-99.99,,2013-02-27 22:31:00,
2013-02-27 15:41:00,18.0,3.0,-100.00,West,277,24.0,34.0,51,0.00,,,-99.99,,2013-02-27 22:41:00,
2013-02-27 15:51:00,18.0,3.0,-100.00,West,270,21.0,32.0,51,0.00,,,-99.99,,2013-02-27 22:51:00,
2013-02-27 16:01:00,17.0,4.0,-100.00,West,265,22.0,31.0,56,0.00,,,-99.99,,2013-02-27 23:01:00,
2013-02-27 16:11:00,17.0,3.0,-100.00,West,263,23.0,31.0,52,0.00,,,-99.99,,2013-02-27 23:11:00,
2013-02-27 16:21:00,17.0,5.0,-100.00,West,271,22.0,34.0,58,0.00,,,-99.99,,2013-02-27 23:21:00,
2013-02-27 16:32:00,17.0,4.0,-100.00,West,278,27.0,39.0,58,0.00,,,-99.99,,2013-02-27 23:32:00,
2013-02-27 16:42:00,16.0,5.0,-100.00,West,278,29.0,39.0,60,0.00,,,-99.99,,2013-02-27 23:42:00,
2013-02-27 16:52:00,16.0,5.0,-100.00,West,270,26.0,34.0,62,0.00,,,-99.99,,2013-02-27 23:52:00,
2013-02-27 17:01:00,16.0,6.0,-100.00,West,267,23.0,40.0,64,0.00,,,-99.99,,2013-02-28 00:01:00,
2013-02-27 17:11:00,15.0,6.0,-100.00,West,260,27.0,39.0,65,0.00,,,-99.99,,2013-02-28 00:11:00,
2013-02-27 17:21:00,15.0,6.0,-100.00,West,260,30.0,43.0,66,0.00,,,-99.99,,2013-02-28 00:21:00,
2013-02-27 17:32:00,15.0,6.0,-100.00,West,260,29.0,40.0,65,0.00,,,-99.99,,2013-02-28 00:32:00,
2013-02-27 17:42:00,15.0,6.0,-100.00,WSW,254,30.0,41.0,66,0.00,,,-99.99,,2013-02-28 00:42:00,
2013-02-27 17:51:00,15.0,6.0,-100.00,WSW,253,30.0,42.0,68,0.00,,,-99.99,,2013-02-28 00:51:00,
2013-02-27 18:01:00,15.0,6.0,-100.00,WSW,248,30.0,43.0,68,0.00,,,-99.99,,2013-02-28 01:01:00,
2013-02-27 18:11:00,14.0,5.0,-100.00,WSW,248,27.0,37.0,67,0.00,,,-99.99,,2013-02-28 01:11:00,
2013-02-27 18:21:00,14.0,6.0,-100.00,WSW,246,24.0,33.0,68,0.00,,,-99.99,,2013-02-28 01:21:00,
2013-02-27 18:32:00,14.0,6.0,-100.00,WSW,241,29.0,38.0,69,0.00,,,-99.99,,2013-02-28 01:32:00,
2013-02-27 18:41:00,14.0,6.0,-100.00,WSW,244,25.0,34.0,69,0.00,,,-99.99,,2013-02-28 01:41:00,
2013-02-27 18:51:00,14.0,6.0,-100.00,WSW,247,24.0,37.0,69,0.00,,,-99.99,,2013-02-28 01:51:00,
2013-02-27 19:01:00,14.0,6.0,-100.00,WSW,243,24.0,33.0,70,0.00,,,-99.99,,2013-02-28 02:01:00,
2013-02-27 19:11:00,14.0,6.0,-100.00,WSW,244,23.0,32.0,70,0.00,,,-99.99,,2013-02-28 02:11:00,
2013-02-27 19:22:00,15.0,6.0,-100.00,WSW,241,29.0,35.0,68,0.00,,,-99.99,,2013-02-28 02:22:00,
2013-02-27 19:31:00,15.0,6.0,-100.00,WSW,244,27.0,35.0,68,0.00,,,-99.99,,2013-02-28 02:31:00,
2013-02-27 19:41:00,15.0,6.0,-100.00,WSW,244,27.0,35.0,68,0.00,,,-99.99,,2013-02-28 02:41:00,
2013-02-27 19:51:00,15.0,6.0,-100.00,WSW,244,27.0,35.0,68,0.00,,,-99.99,,2013-02-28 02:51:00,
2013-02-27 20:01:00,15.0,6.0,-100.00,WSW,241,24.0,36.0,68,0.00,,,-99.99,,2013-02-28 03:01:00,
2013-02-27 20:11:00,15.0,7.0,-100.00,WSW,246,28.0,36.0,70,0.00,,,-99.99,,2013-02-28 03:11:00,
2013-02-27 20:21:00,15.0,7.0,-100.00,WSW,243,28.0,38.0,70,0.00,,,-99.99,,2013-02-28 03:21:00,
2013-02-27 20:32:00,15.0,6.0,-100.00,WSW,244,29.0,40.0,68,0.00,,,-99.99,,2013-02-28 03:32:00,
2013-02-27 20:41:00,15.0,6.0,-100.00,WSW,250,24.0,34.0,66,0.00,,,-99.99,,2013-02-28 03:41:00,
2013-02-27 20:52:00,16.0,6.0,-100.00,WSW,247,27.0,34.0,66,0.00,,,-99.99,,2013-02-28 03:52:00,
2013-02-27 21:01:00,16.0,6.0,-100.00,WSW,250,26.0,34.0,64,0.00,,,-99.99,,2013-02-28 04:01:00,
2013-02-27 21:11:00,16.0,6.0,-100.00,WSW,247,24.0,32.0,63,0.00,,,-99.99,,2013-02-28 04:11:00,
2013-02-27 21:21:00,16.0,6.0,-100.00,WSW,248,23.0,31.0,62,0.00,,,-99.99,,2013-02-28 04:21:00,
2013-02-27 21:32:00,17.0,6.0,-100.00,WSW,248,24.0,30.0,62,0.00,,,-99.99,,2013-02-28 04:32:00,
2013-02-27 21:42:00,17.0,6.0,-100.00,WSW,248,24.0,30.0,62,0.00,,,-99.99,,2013-02-28 04:42:00,
2013-02-27 21:51:00,16.0,6.0,-100.00,WSW,250,22.0,30.0,62,0.00,,,-99.99,,2013-02-28 04:51:00,
2013-02-27 22:01:00,16.0,6.0,-100.00,WSW,248,24.0,31.0,63,0.00,,,-99.99,,2013-02-28 05:01:00,
2013-02-27 22:11:00,15.0,6.0,-100.00,WSW,250,22.0,30.0,66,0.00,,,-99.99,,2013-02-28 05:11:00,
2013-02-27 22:22:00,16.0,6.0,-100.00,WSW,248,26.0,32.0,64,0.00,,,-99.99,,2013-02-28 05:22:00,
2013-02-27 22:31:00,16.0,6.0,-100.00,WSW,247,26.0,34.0,64,0.00,,,-99.99,,2013-02-28 05:31:00,
2013-02-27 22:52:00,16.0,6.0,-100.00,WSW,247,23.0,29.0,64,0.00,,,-99.99,,2013-02-28 05:52:00,
2013-02-27 23:01:00,16.0,6.0,-100.00,WSW,247,24.0,31.0,64,0.00,,,-99.99,,2013-02-28 06:01:00,
2013-02-27 23:11:00,16.0,6.0,-100.00,WSW,246,23.0,32.0,62,0.00,,,-99.99,,2013-02-28 06:11:00,
2013-02-27 23:22:00,16.0,6.0,-100.00,WSW,244,22.0,30.0,63,0.00,,,-99.99,,2013-02-28 06:22:00,
2013-02-27 23:32:00,17.0,6.0,-100.00,WSW,243,22.0,31.0,61,0.00,,,-99.99,,2013-02-28 06:32:00,
2013-02-27 23:42:00,16.0,6.0,-100.00,WSW,244,23.0,33.0,62,0.00,,,-99.99,,2013-02-28 06:42:00,
2013-02-27 23:51:00,16.0,5.0,-100.00,WSW,250,21.0,29.0,62,0.00,,,-99.99,,2013-02-28 06:51:00,